[[[{"header":{"parameterUnit":"kt","parameterCategory":2,"dx":1,"dy":1,"la1":30.253999710083008,"la2":30.299108505249023,"lo1":-89.0895004272461,"lo2":-89.04439544677734,"nx":28,"ny":28,"refTime":"2022-09-22T21:00:00:Z","depth":0,"parameterNumber":1,"parameterNumberName":"U-component_of_WINDS"},"data":[-6.0064,-6.0228,-6.0212,-6.0392,-6.0409,-6.0528,-6.0566,-6.0613,-6.0646,-6.0788,-6.0866,-6.0868,-6.0895,-6.0985,-6.1069,-6.1067,-6.1102,-6.1171,-6.1156,-6.0865,-6.0823,-6.0784,-6.0741,-6.118,-6.1181,-6.1458,-6.146,-6.1462,-5.9846,-5.9864,-5.9956,-6.0034,-6.0111,-6.0035,-6.0091,-6.016,-6.027,-6.0314,-6.0391,-6.0515,-6.0611,-6.0615,-6.0705,-6.078,-6.0748,-6.0805,-6.0796,-6.08,-6.049,-6.0445,-6.0829,-6.0828,-6.0828,-6.0828,-6.0828,-6.0828,-5.9445,-5.9546,-5.9583,-5.9682,-5.9717,-5.977,-5.9862,-5.9861,-5.9951,-6.0042,-6.0008,-6.0132,-6.0173,-6.0274,-6.0304,-6.04,-6.0334,-6.0391,-6.0404,-6.0417,-6.0433,-6.0025,-6.0416,-6.0415,-6.0414,-6.0413,-6.0412,0,-5.9145,-5.9125,-5.9212,-5.9295,-5.9366,-5.943,-5.9484,-5.9542,-5.9494,-5.9571,-5.968,-5.974,-5.986,-5.996,-6.0042,-6.0061,-5.9988,-5.9982,-6.0019,-6.0034,-6.0036,-6.0031,-5.9519,-5.9969,-5.9965,-5.9963,-5.9961,-5.9959,-5.8734,-5.8855,-5.8888,-5.8951,-5.8976,-5.9082,-5.914,-5.9088,-5.9153,-5.9214,-5.9305,-5.9406,-5.9484,-5.9663,-5.9661,-5.9751,-5.9715,-5.9888,-5.9728,-5.9738,-5.9711,-5.9702,-5.9712,-5.9918,-5.9923,-5.9928,-5.9931,0,-5.8503,-5.8477,-5.8659,-5.8679,-5.8688,-5.8817,-5.8833,-5.8933,-5.8921,-5.9056,-5.9085,-5.9067,-5.9176,-5.9146,-5.9266,-5.9246,-5.9455,-5.9422,-5.9439,-5.9428,-5.9576,-5.956,-6.0069,-6.0131,-5.9682,-5.9686,-5.969,0,-5.814,-5.8302,-5.8251,-5.8358,-5.8535,-5.8478,-5.8655,-5.8662,-5.8697,-5.8802,-5.8715,-5.8816,-5.8762,-5.8859,-5.8832,-5.8998,-5.9022,-5.9015,-5.9005,-5.902,-5.9021,-5.9051,-5.9027,-5.8984,-5.8982,-5.8979,-5.8977,0,-5.7777,-5.7942,-5.8116,-5.8149,-5.8187,-5.8271,-5.8291,-5.8329,-5.8388,-5.846,-5.8496,-5.8586,-5.8634,-5.8704,-5.8666,-5.8559,-5.8871,-5.8716,-5.8864,-5.8865,-5.8931,-5.8927,-5.9389,-5.8974,-5.8973,-5.8973,-5.8972,0,-5.7477,-5.755,-5.781,-5.7837,-5.7883,-5.8,-5.8081,-5.8174,-5.8221,-5.821,-5.8266,-5.8203,-5.835,-5.8197,-5.8396,-5.8265,-5.8318,-5.8326,-5.8336,-5.8343,-5.8171,-5.843,-5.8877,-5.892,-5.8355,-5.8349,-5.8345,0,-5.7066,-5.7322,-5.7273,-5.7522,-5.7634,-5.7525,-5.7654,-5.7698,-5.7694,-5.7789,-5.7784,-5.7894,-5.7774,-5.7804,-5.7908,-5.7907,-5.8077,-5.7884,-5.8018,-5.8024,-5.8003,-5.8416,-5.8487,-5.8783,-5.8279,-5.8286,-5.8291,0,-5.6744,-5.6788,-5.6837,-5.6869,-5.6919,-5.7015,-5.7164,-5.7259,-5.7324,-5.7387,-5.7508,-5.7665,-5.7578,-5.763,-5.7589,-5.7699,-5.796,-5.7592,-5.7592,-5.7655,-5.8245,-5.8311,-5.8361,-5.7908,-5.7916,-5.7923,-5.8239,0,-5.6288,-5.6413,-5.6543,-5.6623,-5.6692,-5.6848,-5.6813,-5.689,-5.6841,-5.6832,-5.7014,-5.7045,-5.7145,-5.7195,-5.7151,-5.7413,-5.7363,-5.7271,-5.7116,-5.739,-5.7492,-5.7535,-5.6966,-5.6961,-5.6957,-5.6954,0,0,-5.5899,-5.6077,-5.602,-5.6162,-5.6215,-5.6099,-5.6268,-5.6308,-5.6392,-5.6432,-5.6346,-5.6571,-5.6601,-5.6825,-5.6908,-5.6951,-5.6992,-5.69,-5.7261,-5.7295,-5.7327,-5.7438,-5.7483,-5.6947,-5.6945,-5.6944,-5.6942,0,-5.5724,-5.5755,-5.5923,-5.5961,-5.6015,-5.5997,-5.6038,-5.6071,-5.6073,-5.6252,-5.6153,-5.6259,-5.6444,-5.6486,-5.6532,-5.6872,-5.6792,-5.6907,-5.7098,-5.7222,-5.7262,-5.7297,-5.7414,-5.7457,-5.6933,-5.6933,-5.6934,0,-5.5396,-5.5419,-5.5497,-5.5616,-5.5651,-5.5772,-5.56,-5.5737,-5.5826,-5.5693,-5.5872,-5.5886,-5.5941,-5.616,-5.6257,-5.6181,-5.661,-5.6471,-5.6495,-5.6504,-5.6623,-5.6671,-5.6713,-5.6151,-5.6148,-5.6146,0,0,-5.5249,-5.5366,-5.5374,-5.5576,-5.5604,-5.5581,-5.5643,-5.56,-5.5651,-5.5672,-5.5687,-5.5741,-5.5846,-5.5917,-5.6015,-5.6261,-5.6266,-5.6376,-5.6413,-5.6443,-5.6469,-5.6595,-5.6643,-5.6136,-5.6136,-5.6136,0,0,-5.5179,-5.5196,-5.5137,-5.5366,-5.5418,-5.544,-5.5564,-5.5493,-5.5577,-5.5555,-5.5492,-5.5504,-5.5707,-5.5725,-5.5597,-5.5959,-5.5807,-5.5837,-5.5939,-5.5985,-5.6022,-5.6012,-5.5426,0,0,0,0,0,-5.498,-5.5193,-5.514,-5.5173,-5.5324,-5.547,-5.5489,-5.5439,-5.5331,-5.543,-5.5431,-5.5342,-5.5642,-5.5527,-5.5562,-5.5705,-5.6009,-5.6032,-5.6053,-5.6242,-5.6291,-5.6332,0,0,0,0,0,0,-5.4993,-5.5034,-5.5134,-5.5166,-5.5199,-5.5462,-5.5267,-5.5259,-5.5319,-5.5299,-5.5344,-5.5343,-5.5305,-5.5506,-5.5538,-5.5675,-5.5415,-5.6018,-5.6037,-5.6054,-5.6259,-5.6298,-5.6332,0,0,0,0,0,-5.5003,-5.5035,-5.529,-5.5163,-5.5192,-5.5177,-5.5259,-5.5251,-5.5296,-5.5298,-5.5294,-5.5253,-5.5311,-5.5334,-5.5525,-5.5661,-5.5393,-5.5405,-5.6031,-5.6046,-5.6059,-5.6278,0,0,0,0,0,0,-5.501,-5.503,-5.5295,-5.5302,-5.5078,-5.5161,-5.5172,-5.5244,-5.529,-5.5288,-5.5203,-5.5187,-5.5317,-5.5334,-5.5353,-5.5659,-5.5375,-5.5387,-5.5395,-5.6042,-5.6054,-5.6064,0,0,0,0,0,0,-5.5011,-5.5037,-5.5299,-5.5195,-5.5189,-5.5147,-5.5157,-5.5313,-5.5292,-5.5192,-5.5179,-5.5195,-5.5289,-5.5335,-5.5349,-5.5595,-5.5361,-5.5372,-5.5381,-5.5386,-5.6052,-5.6061,0,0,0,0,0,0,-5.5021,-5.5042,-5.5193,-5.5189,-5.5183,-5.5258,-5.5284,-5.5442,-5.5202,-5.5192,-5.5179,-5.5168,-5.5294,-5.5306,-5.5348,-5.5588,-5.5593,-5.5361,-5.5369,-5.5375,-5.5378,0,0,0,0,0,0,0,-5.5029,-5.4898,-5.5253,-5.5184,-5.5179,-5.5367,-5.5369,-5.5371,-5.5199,-5.519,-5.5181,-5.5173,-5.5293,-5.5306,-5.5319,-5.5583,0,0,-5.536,-5.5366,0,0,0,0,0,0,0,0,-5.4888,-5.4895,-5.5254,-5.5255,-5.5257,-5.5367,-5.5369,-5.537,-5.5198,-5.519,-5.5183,-5.5176,-5.5297,-5.5307,-5.5318,0,0,0,0,0,0,0,0,0,0,0,0,0,0,0,-5.5254,-5.5255,0,-5.5367,-5.5369,-5.537,-5.5197,-5.5191,-5.5185,-5.5179,-5.53,-5.5308,-5.5317,0,0,0,0,0,0,0,0,0,0,0,0,0,0,0,0,0,0,0,0,0,0,0,0,0,0,0,0,0,0,0,0,0,0,0,0,0,0,0,0,0,0,0,0,0,0,0,0,0,0,0,0,0,0,0,0,0,0,0,0,0,0,0,0,0,0,0,0,0]}],[{"header":{"parameterUnit":"kt","parameterCategory":2,"dx":1,"dy":1,"la1":30.253999710083008,"la2":30.299108505249023,"lo1":-89.0895004272461,"lo2":-89.04439544677734,"nx":28,"ny":28,"refTime":"2022-09-22T21:00:00:Z","depth":0,"parameterNumber":2,"parameterNumberName":"V-component_of_WINDS"},"data":[-4.3014,-4.2983,-4.2963,-4.2915,-4.2889,-4.2852,-4.2832,-4.2802,-4.2774,-4.2724,-4.269,-4.2665,-4.2625,-4.2577,-4.2538,-4.2526,-4.251,-4.2511,-4.2497,-4.2513,-4.2513,-4.2514,-4.252,-4.2509,-4.2509,-4.2483,-4.2483,-4.2482,-4.3018,-4.2993,-4.2964,-4.2922,-4.2895,-4.288,-4.2844,-4.2822,-4.2788,-4.2754,-4.2721,-4.2675,-4.2635,-4.2595,-4.2551,-4.2531,-4.252,-4.252,-4.252,-4.2513,-4.253,-4.2537,-4.2529,-4.2529,-4.2529,-4.2529,-4.2529,-4.2529,-4.3019,-4.3002,-4.2967,-4.2935,-4.2908,-4.2879,-4.2858,-4.2829,-4.2799,-4.2756,-4.2738,-4.2699,-4.2658,-4.2598,-4.2572,-4.2538,-4.2534,-4.2527,-4.2524,-4.2522,-4.2521,-4.2553,-4.253,-4.253,-4.253,-4.253,-4.253,0,-4.3014,-4.2999,-4.2972,-4.2937,-4.2913,-4.2884,-4.2855,-4.2841,-4.2802,-4.2778,-4.2742,-4.2717,-4.2666,-4.2627,-4.2583,-4.2558,-4.2538,-4.2536,-4.253,-4.2537,-4.2546,-4.2536,-4.256,-4.2537,-4.2537,-4.2537,-4.2537,-4.2537,-4.301,-4.2995,-4.295,-4.2933,-4.2913,-4.2886,-4.2865,-4.2834,-4.2812,-4.277,-4.2754,-4.2717,-4.2685,-4.2628,-4.2593,-4.2554,-4.2544,-4.2536,-4.2538,-4.2544,-4.2539,-4.2539,-4.2534,-4.2537,-4.2537,-4.2537,-4.2537,0,-4.3009,-4.2981,-4.2951,-4.2909,-4.2897,-4.2881,-4.2843,-4.2824,-4.28,-4.2769,-4.276,-4.2721,-4.2685,-4.2652,-4.2605,-4.2588,-4.2551,-4.2545,-4.2563,-4.2558,-4.2545,-4.2546,-4.2517,-4.251,-4.2525,-4.2525,-4.2525,0,-4.2994,-4.2975,-4.2933,-4.2918,-4.2894,-4.2864,-4.284,-4.2818,-4.2787,-4.2763,-4.2739,-4.2717,-4.268,-4.2651,-4.2626,-4.2591,-4.2584,-4.2567,-4.2561,-4.2568,-4.257,-4.2555,-4.2554,-4.2552,-4.2552,-4.2553,-4.2553,0,-4.2994,-4.2952,-4.2927,-4.2912,-4.2867,-4.2855,-4.2835,-4.2802,-4.2783,-4.2752,-4.2738,-4.2705,-4.2686,-4.2658,-4.2628,-4.263,-4.2586,-4.2582,-4.2569,-4.2569,-4.2561,-4.2561,-4.2546,-4.2553,-4.2553,-4.2553,-4.2553,0,-4.2977,-4.2951,-4.2922,-4.2882,-4.2872,-4.2856,-4.2822,-4.2802,-4.2768,-4.2753,-4.2729,-4.271,-4.2682,-4.2679,-4.2636,-4.2647,-4.2628,-4.2611,-4.2609,-4.2603,-4.2601,-4.2593,-4.2584,-4.258,-4.2598,-4.2598,-4.2598,0,-4.2982,-4.2946,-4.2922,-4.2894,-4.2873,-4.2848,-4.2829,-4.2803,-4.2781,-4.2758,-4.2733,-4.2707,-4.27,-4.2687,-4.2671,-4.2644,-4.263,-4.2645,-4.2604,-4.2603,-4.261,-4.2603,-4.2609,-4.259,-4.2603,-4.2602,-4.2602,0,-4.2983,-4.2933,-4.293,-4.2912,-4.2876,-4.286,-4.2839,-4.2808,-4.2793,-4.2769,-4.2747,-4.2713,-4.2703,-4.2685,-4.2667,-4.2651,-4.2638,-4.2644,-4.2643,-4.264,-4.2605,-4.2609,-4.2606,-4.2628,-4.2628,-4.2627,-4.2606,0,-4.2957,-4.2938,-4.2931,-4.2897,-4.288,-4.2864,-4.2835,-4.282,-4.2805,-4.2784,-4.2755,-4.2728,-4.2697,-4.2688,-4.2674,-4.2651,-4.2649,-4.2642,-4.2636,-4.2633,-4.2625,-4.2622,-4.2651,-4.265,-4.265,-4.265,0,0,-4.2966,-4.294,-4.2918,-4.29,-4.2884,-4.2861,-4.2845,-4.2827,-4.2792,-4.278,-4.2777,-4.2725,-4.2704,-4.2672,-4.2668,-4.2658,-4.2649,-4.2654,-4.2636,-4.2635,-4.2633,-4.2625,-4.2623,-4.2649,-4.2649,-4.2649,-4.2649,0,-4.2951,-4.2936,-4.2923,-4.2903,-4.2875,-4.2856,-4.2853,-4.282,-4.2807,-4.2782,-4.2762,-4.2742,-4.2705,-4.2682,-4.2666,-4.2657,-4.2642,-4.265,-4.2653,-4.2635,-4.2634,-4.2633,-4.2624,-4.2622,-4.2648,-4.2648,-4.2649,0,-4.2945,-4.2923,-4.2915,-4.2884,-4.2865,-4.2846,-4.2834,-4.2816,-4.2801,-4.2777,-4.2753,-4.2735,-4.2705,-4.2681,-4.2669,-4.2666,-4.2636,-4.2644,-4.2644,-4.2642,-4.2623,-4.2622,-4.2621,-4.2634,-4.2634,-4.2634,0,0,-4.2936,-4.2921,-4.2889,-4.2879,-4.2868,-4.2841,-4.2829,-4.2814,-4.279,-4.278,-4.2757,-4.2733,-4.2709,-4.2695,-4.2673,-4.2652,-4.2641,-4.2643,-4.2644,-4.2644,-4.2642,-4.2623,-4.2622,-4.2634,-4.2634,-4.2634,0,0,-4.2931,-4.2895,-4.2885,-4.2871,-4.2849,-4.2816,-4.281,-4.2797,-4.2775,-4.2774,-4.2747,-4.2739,-4.2717,-4.27,-4.2707,-4.2669,-4.2665,-4.2663,-4.2681,-4.2682,-4.2683,-4.2686,-4.269,0,0,0,0,0,-4.2903,-4.2899,-4.2891,-4.2885,-4.2846,-4.2821,-4.2816,-4.2794,-4.279,-4.2785,-4.2763,-4.275,-4.2697,-4.2702,-4.2695,-4.2688,-4.2637,-4.2636,-4.2636,-4.2654,-4.2655,-4.2656,0,0,0,0,0,0,-4.2901,-4.2893,-4.2891,-4.2859,-4.285,-4.2821,-4.2809,-4.2803,-4.279,-4.2788,-4.2755,-4.2749,-4.273,-4.2704,-4.2698,-4.2692,-4.2692,-4.2637,-4.2636,-4.2636,-4.2655,-4.2655,-4.2656,0,0,0,0,0,-4.2898,-4.2893,-4.2837,-4.2858,-4.2851,-4.2821,-4.2809,-4.2804,-4.2794,-4.2761,-4.2755,-4.2779,-4.273,-4.2724,-4.27,-4.2695,-4.2696,-4.2694,-4.2637,-4.2636,-4.2636,-4.2655,0,0,0,0,0,0,-4.2897,-4.2887,-4.2835,-4.2832,-4.286,-4.2822,-4.2816,-4.2805,-4.2767,-4.2761,-4.2784,-4.2783,-4.273,-4.2725,-4.272,-4.2697,-4.2699,-4.2697,-4.2696,-4.2636,-4.2636,-4.2636,0,0,0,0,0,0,-4.289,-4.2884,-4.2833,-4.2836,-4.2833,-4.2823,-4.2817,-4.2796,-4.2767,-4.2792,-4.279,-4.2784,-4.2737,-4.2727,-4.2723,-4.2689,-4.2701,-4.2699,-4.2698,-4.2697,-4.2636,-4.2636,0,0,0,0,0,0,-4.2887,-4.2882,-4.2837,-4.2835,-4.2832,-4.2793,-4.2803,-4.2764,-4.2771,-4.2794,-4.2771,-4.2771,-4.2739,-4.2734,-4.2724,-4.2693,-4.269,-4.2701,-4.27,-4.2699,-4.2698,0,0,0,0,0,0,0,-4.2885,-4.2923,-4.2855,-4.2833,-4.2831,-4.2801,-4.28,-4.2799,-4.2771,-4.2771,-4.2771,-4.2771,-4.2713,-4.2711,-4.2709,-4.2696,0,0,-4.2702,-4.2701,0,0,0,0,0,0,0,0,-4.2924,-4.2923,-4.2855,-4.2854,-4.2853,-4.2801,-4.28,-4.28,-4.2771,-4.2771,-4.2771,-4.2771,-4.2713,-4.2711,-4.2709,0,0,0,0,0,0,0,0,0,0,0,0,0,0,0,-4.2855,-4.2854,0,-4.2801,-4.28,-4.28,-4.2771,-4.2771,-4.2771,-4.2771,-4.2712,-4.2711,-4.2709,0,0,0,0,0,0,0,0,0,0,0,0,0,0,0,0,0,0,0,0,0,0,0,0,0,0,0,0,0,0,0,0,0,0,0,0,0,0,0,0,0,0,0,0,0,0,0,0,0,0,0,0,0,0,0,0,0,0,0,0,0,0,0,0,0,0,0,0,0]}]]]